Location: Banff
(51.1667°N, 115.5667°W)
Time: 13:14:47
(UTC+00:00)

Vanguard 1 Rocket - Pass Details

Date: 29 November 2020
Orbit: 655 x 4222 km, 34.3° (Epoch: 23 January)

Event Time Altitude Azimuth Distance (km) Brightness Sun altitude
Rises 09:36:59 0° 236° (SW) 8,374 - -51.6°
Reaches altitude 10° 09:43:12 10° 231° (SW) 7,421 - -50.8°
Maximum altitude 10:06:05 44° 170° (S) 4,451 - -47.8°
Exits shadow 10:06:21 44° 169° (SSE) 4,435 10.5 -47.8°
Drops below altitude 10° 10:21:42 10° 106° (ESE) 5,239 11.6 -45.6°
Sets 10:25:09 0° 100° (E) 5,844 12.1 -45.1°
